• In Belgien
  • Länderverzeichnis
  • Für 7 Tage
  • Wassertemperatur
  • Satellitenkarten
  • Wetterkarte
  • Widgets
  • user-avatar
    Anmelden

    Stündliche Wetter Iraklio

    Heute, 19 Juni, Dienstag

    Zeit Temperatur Niederschläge Wind Luftdruck Luftfeuchtigkeit
    00:00 +24°C° 0 mm 2 m/S 750 mmHg 77%
    01:00 +24°C° 0 mm 2 m/S 750 mmHg 77%
    02:00 +24°C° 0 mm 3 m/S 750 mmHg 77%
    03:00 +24°C° 0,1 mm 3 m/S 750 mmHg 77%
    04:00 +23°C° 0,1 mm 2 m/S 750 mmHg 77%
    05:00 +23°C° 0,1 mm 2 m/S 749 mmHg 77%
    06:00 +24°C° 0 mm 2 m/S 750 mmHg 73%
    07:00 +25°C° 0 mm 2 m/S 750 mmHg 68%
    08:00 +26°C° 0 mm 2 m/S 750 mmHg 63%
    09:00 +27°C° 0,2 mm 2 m/S 750 mmHg 60%
    10:00 +28°C° 0,2 mm 3 m/S 750 mmHg 58%
    11:00 +28°C° 0,2 mm 3 m/S 751 mmHg 55%
    12:00 +29°C° 0,3 mm 3 m/S 751 mmHg 55%
    13:00 +29°C° 0,3 mm 3 m/S 751 mmHg 55%
    14:00 +29°C° 0 mm 4 m/S 751 mmHg 56%
    15:00 +29°C° 0,6 mm 3 m/S 751 mmHg 58%
    16:00 +28°C° 0,6 mm 3 m/S 751 mmHg 59%
    17:00 +28°C° 0,6 mm 3 m/S 751 mmHg 60%
    18:00 +28°C° 0,4 mm 3 m/S 752 mmHg 63%
    19:00 +27°C° 0,4 mm 2 m/S 752 mmHg 67%
    20:00 +26°C° 0,4 mm 2 m/S 752 mmHg 70%
    21:00 +26°C° 0,1 mm 2 m/S 752 mmHg 72%
    22:00 +26°C° 0,1 mm 2 m/S 752 mmHg 73%
    23:00 +25°C° 0,1 mm 2 m/S 752 mmHg 75%

    Morgen, 20 Juni, Mittwoch

    Zeit Temperatur Niederschläge Wind Luftdruck Luftfeuchtigkeit
    00:00 +25°C° 0 mm 2 m/S 752 mmHg 75%
    01:00 +25°C° 0 mm 2 m/S 753 mmHg 75%
    02:00 +25°C° 0 mm 3 m/S 753 mmHg 75%
    03:00 +24°C° 0 mm 3 m/S 752 mmHg 76%
    04:00 +24°C° 0 mm 3 m/S 752 mmHg 77%
    05:00 +24°C° 0 mm 3 m/S 752 mmHg 77%
    06:00 +25°C° 0 mm 3 m/S 753 mmHg 72%
    07:00 +26°C° 0 mm 3 m/S 753 mmHg 68%
    08:00 +27°C° 0 mm 3 m/S 753 mmHg 63%
    09:00 +28°C° 0 mm 3 m/S 753 mmHg 60%
    10:00 +28°C° 0 mm 3 m/S 754 mmHg 57%
    11:00 +29°C° 0 mm 4 m/S 754 mmHg 55%
    12:00 +29°C° 0,1 mm 4 m/S 754 mmHg 54%
    13:00 +30°C° 0,1 mm 4 m/S 754 mmHg 54%
    14:00 +30°C° 0,1 mm 4 m/S 754 mmHg 53%
    15:00 +30°C° 0,1 mm 4 m/S 754 mmHg 55%
    16:00 +29°C° 0,1 mm 3 m/S 754 mmHg 56%
    17:00 +29°C° 0,1 mm 3 m/S 754 mmHg 58%
    18:00 +28°C° 0,1 mm 3 m/S 754 mmHg 61%
    19:00 +28°C° 0,1 mm 3 m/S 754 mmHg 64%
    20:00 +27°C° 0,1 mm 3 m/S 754 mmHg 67%
    21:00 +26°C° 0 mm 3 m/S 754 mmHg 69%
    22:00 +26°C° 0 mm 3 m/S 755 mmHg 72%
    23:00 +26°C° 0 mm 3 m/S 755 mmHg 74%

    übermorgen, 21 Juni, Donnerstag

    Zeit Temperatur Niederschläge Wind Luftdruck Luftfeuchtigkeit
    00:00 +25°C° 0 mm 3 m/S 755 mmHg 75%
    01:00 +25°C° 0 mm 3 m/S 754 mmHg 76%
    02:00 +25°C° 0 mm 3 m/S 754 mmHg 77%
    03:00 +24°C° 0 mm 3 m/S 754 mmHg 76%
    04:00 +23°C° 0 mm 4 m/S 754 mmHg 76%
    05:00 +23°C° 0 mm 4 m/S 754 mmHg 75%
    06:00 +25°C° 0 mm 4 m/S 754 mmHg 71%
    07:00 +26°C° 0 mm 3 m/S 754 mmHg 66%
    08:00 +27°C° 0 mm 3 m/S 754 mmHg 62%
    09:00 +28°C° 0 mm 3 m/S 754 mmHg 59%
    10:00 +28°C° 0 mm 4 m/S 755 mmHg 55%
    11:00 +29°C° 0 mm 4 m/S 755 mmHg 52%
    12:00 +29°C° 0 mm 4 m/S 755 mmHg 52%
    13:00 +30°C° 0 mm 5 m/S 754 mmHg 52%
    14:00 +30°C° 0 mm 5 m/S 754 mmHg 51%
    15:00 +30°C° 0 mm 5 m/S 754 mmHg 52%
    16:00 +30°C° 0 mm 4 m/S 754 mmHg 53%
    17:00 +30°C° 0 mm 4 m/S 754 mmHg 53%
    18:00 +29°C° 0 mm 4 m/S 754 mmHg 55%
    19:00 +28°C° 0 mm 3 m/S 754 mmHg 57%
    20:00 +28°C° 0 mm 3 m/S 754 mmHg 59%
    21:00 +27°C° 0 mm 3 m/S 754 mmHg 59%
    22:00 +27°C° 0 mm 3 m/S 754 mmHg 59%
    23:00 +26°C° 0 mm 3 m/S 754 mmHg 59%

    22 Juni, Freitag

    Zeit Temperatur Niederschläge Wind Luftdruck Luftfeuchtigkeit
    00:00 +26°C° 0 mm 3 m/S 754 mmHg 58%
    01:00 +25°C° 0 mm 3 m/S 754 mmHg 58%
    02:00 +25°C° 0 mm 3 m/S 753 mmHg 58%
    03:00 +25°C° 0 mm 3 m/S 753 mmHg 57%
    04:00 +24°C° 0 mm 3 m/S 753 mmHg 57%
    05:00 +24°C° 0 mm 3 m/S 753 mmHg 56%
    06:00 +25°C° 0 mm 3 m/S 753 mmHg 53%
    07:00 +27°C° 0 mm 3 m/S 753 mmHg 50%
    08:00 +28°C° 0 mm 3 m/S 753 mmHg 46%
    09:00 +28°C° 0 mm 3 m/S 754 mmHg 45%
    10:00 +29°C° 0 mm 4 m/S 754 mmHg 44%
    11:00 +30°C° 0 mm 5 m/S 754 mmHg 43%
    12:00 +30°C° 0 mm 5 m/S 753 mmHg 44%
    13:00 +32°C° 0 mm 6 m/S 753 mmHg 45%
    14:00 +32°C° 0 mm 6 m/S 753 mmHg 45%
    15:00 +32°C° 0 mm 6 m/S 753 mmHg 49%
    16:00 +30°C° 0 mm 7 m/S 753 mmHg 52%
    17:00 +30°C° 0 mm 7 m/S 752 mmHg 55%
    18:00 +29°C° 0 mm 7 m/S 752 mmHg 60%
    19:00 +28°C° 0 mm 6 m/S 753 mmHg 65%
    20:00 +27°C° 0 mm 6 m/S 753 mmHg 71%
    21:00 +26°C° 0 mm 5 m/S 753 mmHg 73%
    22:00 +26°C° 0 mm 5 m/S 753 mmHg 76%
    23:00 +25°C° 0 mm 4 m/S 753 mmHg 79%

    23 Juni, Samstag

    Zeit Temperatur Niederschläge Wind Luftdruck Luftfeuchtigkeit
    00:00 +25°C° 0 mm 4 m/S 752 mmHg 80%
    01:00 +25°C° 0 mm 4 m/S 752 mmHg 82%
    02:00 +24°C° 0 mm 3 m/S 751 mmHg 83%
    03:00 +23°C° 0 mm 4 m/S 751 mmHg 83%
    04:00 +23°C° 0 mm 4 m/S 751 mmHg 84%
    05:00 +23°C° 0 mm 4 m/S 751 mmHg 84%
    06:00 +25°C° 0 mm 4 m/S 752 mmHg 79%
    07:00 +26°C° 0 mm 4 m/S 752 mmHg 73%
    08:00 +27°C° 0 mm 5 m/S 752 mmHg 68%
    09:00 +28°C° 0 mm 5 m/S 752 mmHg 63%
    10:00 +29°C° 0 mm 6 m/S 752 mmHg 58%
    11:00 +30°C° 0 mm 6 m/S 753 mmHg 54%
    12:00 +30°C° 0 mm 6 m/S 753 mmHg 53%
    13:00 +32°C° 0 mm 7 m/S 752 mmHg 52%
    14:00 +32°C° 0 mm 7 m/S 752 mmHg 52%
    15:00 +32°C° 0,1 mm 6 m/S 752 mmHg 53%
    16:00 +32°C° 0,1 mm 6 m/S 752 mmHg 55%
    17:00 +32°C° 0,1 mm 6 m/S 752 mmHg 56%
    18:00 +30°C° 0 mm 5 m/S 752 mmHg 60%
    19:00 +29°C° 0 mm 5 m/S 752 mmHg 64%
    20:00 +28°C° 0 mm 4 m/S 752 mmHg 68%
    21:00 +27°C° 0 mm 4 m/S 752 mmHg 70%
    22:00 +26°C° 0 mm 4 m/S 752 mmHg 73%
    23:00 +26°C° 0 mm 4 m/S 753 mmHg 75%

    24 Juni, Sonntag

    Zeit Temperatur Niederschläge Wind Luftdruck Luftfeuchtigkeit
    00:00 +26°C° 0 mm 4 m/S 752 mmHg 75%
    01:00 +25°C° 0 mm 4 m/S 752 mmHg 74%
    02:00 +25°C° 0 mm 4 m/S 752 mmHg 74%
    03:00 +25°C° 0 mm 4 m/S 752 mmHg 73%
    04:00 +25°C° 0 mm 4 m/S 752 mmHg 73%
    05:00 +23°C° 0 mm 4 m/S 751 mmHg 72%
    06:00 +26°C° 0 mm 4 m/S 752 mmHg 69%
    07:00 +27°C° 0 mm 4 m/S 752 mmHg 66%
    08:00 +28°C° 0 mm 4 m/S 752 mmHg 63%
    09:00 +29°C° 0 mm 4 m/S 752 mmHg 60%
    10:00 +30°C° 0 mm 4 m/S 752 mmHg 56%
    11:00 +32°C° 0 mm 4 m/S 753 mmHg 53%
    12:00 +32°C° 0 mm 4 m/S 753 mmHg 52%
    13:00 +33°C° 0 mm 4 m/S 753 mmHg 51%
    14:00 +33°C° 0 mm 4 m/S 752 mmHg 50%
    15:00 +33°C° 0 mm 4 m/S 752 mmHg 50%
    16:00 +33°C° 0 mm 4 m/S 752 mmHg 51%
    17:00 +33°C° 0 mm 4 m/S 752 mmHg 51%
    18:00 +30°C° 0 mm 4 m/S 752 mmHg 55%
    19:00 +29°C° 0 mm 4 m/S 753 mmHg 59%
    20:00 +28°C° 0 mm 4 m/S 753 mmHg 63%
    21:00 +27°C° 0 mm 4 m/S 753 mmHg 67%
    22:00 +27°C° 0 mm 4 m/S 753 mmHg 70%
    23:00 +26°C° 0 mm 4 m/S 753 mmHg 74%
    Mehr zeigen